{"data":{"norad_id":66509,"intl_designator":"2025-263AA","name":"STARLINK-35598","alt_names":[],"object_type":"PAYLOAD","status":"ACTIVE","operator":null,"country":"US","launch_date":"2025-11-15","launch_site_code":"AFETR","launch_vehicle":null,"mission":null,"orbit_class":"UNKNOWN","rcs_meters":null,"size_class":null,"mass_kg":null,"dimensions":null,"purposes":["comms"],"wikipedia_slug":null,"has_3d_model":false,"image_url":null,"decayed_at":null,"tle_current":{"epoch":"2026-09-20T11:18:47.316672Z","epoch_age_seconds":92150,"freshness":"FRESH","line1":"1 66509U 25263AA  26263.47138098  .00016129  00000+0  59417-3 0  9990","line2":"2 66509  42.9992 331.0627 0000936 262.8171  97.2574 15.27590998 48685","mean_motion":15.27590998,"eccentricity":9.36e-5,"inclination_deg":42.9992,"raan_deg":331.0627,"arg_perigee_deg":262.8171,"mean_anomaly_deg":97.2574,"bstar":0.00059417,"rev_number":4868,"period_min":94.266070033492,"perigee_km":482.37396033255,"apogee_km":483.6583682049,"semimajor_km":6861.1531642687,"source":"CELESTRAK","updated_at":"2026-09-21T09:00:35.924184Z"}}}